FBU80G KSFO-NTAA

Flight info

Callsign FBU80G
Flight time N/A
Altitude 38000
Route GNNRR3 CINNY A220 AHNDO DCT 20N133W/N0486F400 DCT BORIC DCT 10N136W DCT WIBIG G575 REPAR DCT ASOKI ASOKI4K
Aircraft A359/H-SDE2E3GHIJ3J4J5LM1ORWXY/LB1D1

Departure

Time 2026-05-07 11:34
Airport San Francisco International Airport (KSFO)

Arrival

Time N/A
Airport Fa'a'ā International Airport (NTAA)
Time Latitude Longitude Altitude Speed Heading
2026-05-07 11:11 37.61222 -122.38896 27 ft 0 kts 298°
2026-05-07 11:19 37.61212 -122.38872 27 ft 4 kts 298°
2026-05-07 11:19 37.61199 -122.38842 25 ft 4 kts 298°
2026-05-07 11:20 37.61189 -122.38819 25 ft 4 kts 292°
2026-05-07 11:20 37.61184 -122.38798 26 ft 4 kts 249°
2026-05-07 11:20 37.61193 -122.38783 23 ft 3 kts 208°
2026-05-07 11:20 37.61216 -122.38767 26 ft 4 kts 208°
2026-05-07 11:21 37.61222 -122.38763 25 ft 0 kts 208°
2026-05-07 11:23 37.61209 -122.38772 27 ft 6 kts 208°
2026-05-07 11:23 37.61144 -122.38816 27 ft 15 kts 208°
2026-05-07 11:23 37.61080 -122.38858 27 ft 0 kts 207°
2026-05-07 11:24 37.61066 -122.38870 27 ft 7 kts 213°
2026-05-07 11:24 37.60995 -122.38918 27 ft 14 kts 187°
2026-05-07 11:24 37.60929 -122.38870 27 ft 11 kts 128°
2026-05-07 11:24 37.60890 -122.38776 27 ft 15 kts 117°
2026-05-07 11:25 37.60835 -122.38642 27 ft 12 kts 118°
2026-05-07 11:25 37.60799 -122.38546 27 ft 9 kts 99°
2026-05-07 11:25 37.60818 -122.38512 27 ft 5 kts 33°
2026-05-07 11:25 37.60878 -122.38495 27 ft 12 kts
2026-05-07 11:26 37.60962 -122.38447 27 ft 12 kts 34°
2026-05-07 11:26 37.60971 -122.38412 27 ft 2 kts 116°
2026-05-07 11:26 37.60947 -122.38373 27 ft 10 kts 133°
2026-05-07 11:26 37.60887 -122.38277 27 ft 14 kts 113°
2026-05-07 11:27 37.60862 -122.38164 27 ft 15 kts 113°
2026-05-07 11:27 37.60805 -122.38025 27 ft 20 kts 117°
2026-05-07 11:27 37.60748 -122.37882 27 ft 13 kts 106°
2026-05-07 11:27 37.60766 -122.37833 26 ft 6 kts 45°
2026-05-07 11:28 37.60809 -122.37793 27 ft 10 kts 28°
2026-05-07 11:28 37.60881 -122.37745 27 ft 14 kts 28°
2026-05-07 11:28 37.60974 -122.37683 27 ft 16 kts 27°
2026-05-07 11:28 37.61076 -122.37617 27 ft 17 kts 27°
2026-05-07 11:29 37.61185 -122.37545 27 ft 18 kts 29°
2026-05-07 11:29 37.61299 -122.37468 27 ft 19 kts 28°
2026-05-07 11:29 37.61420 -122.37389 27 ft 20 kts 27°
2026-05-07 11:29 37.61531 -122.37290 27 ft 19 kts 53°
2026-05-07 11:30 37.61553 -122.37135 27 ft 18 kts 103°
2026-05-07 11:30 37.61499 -122.36986 27 ft 21 kts 119°
2026-05-07 11:30 37.61404 -122.36837 27 ft 22 kts 131°
2026-05-07 11:30 37.61322 -122.36675 27 ft 22 kts 118°
2026-05-07 11:31 37.61248 -122.36499 27 ft 23 kts 118°
2026-05-07 11:31 37.61171 -122.36318 26 ft 24 kts 118°
2026-05-07 11:31 37.61094 -122.36137 27 ft 21 kts 118°
2026-05-07 11:31 37.61057 -122.35966 27 ft 19 kts 71°
2026-05-07 11:32 37.61186 -122.35878 27 ft 5 kts 331°
2026-05-07 11:32 37.61199 -122.35901 27 ft 0 kts 298°
2026-05-07 11:33 37.61224 -122.35962 27 ft 32 kts 297°
2026-05-07 11:33 37.61431 -122.36457 27 ft 94 kts 297°
2026-05-07 11:33 37.61822 -122.37388 27 ft 145 kts 298°
2026-05-07 11:33 37.62319 -122.38572 515 ft 149 kts 298°
2026-05-07 11:34 37.62792 -122.39723 1125 ft 152 kts 296°
2026-05-07 11:34 37.63296 -122.40973 1455 ft 168 kts 296°
2026-05-07 11:34 37.63885 -122.42335 1700 ft 186 kts 298°
2026-05-07 11:34 37.64568 -122.43838 1894 ft 208 kts 298°
2026-05-07 11:35 37.65312 -122.45494 2164 ft 228 kts 298°
2026-05-07 11:35 37.66097 -122.47331 2529 ft 242 kts 294°
2026-05-07 11:35 37.66556 -122.49418 2951 ft 253 kts 275°
2026-05-07 11:35 37.66340 -122.51636 3457 ft 260 kts 252°
2026-05-07 11:36 37.65450 -122.53645 3983 ft 266 kts 234°
2026-05-07 11:36 37.64278 -122.55474 4538 ft 269 kts 231°
2026-05-07 11:36 37.63073 -122.57293 5102 ft 271 kts 231°
2026-05-07 11:36 37.61870 -122.59132 5678 ft 272 kts 232°
2026-05-07 11:37 37.60674 -122.60975 6299 ft 271 kts 232°
2026-05-07 11:37 37.59482 -122.62822 6897 ft 272 kts 232°
2026-05-07 11:37 37.58286 -122.64680 7403 ft 275 kts 232°
2026-05-07 11:37 37.57075 -122.66562 7919 ft 277 kts 232°
2026-05-07 11:38 37.55870 -122.68436 8432 ft 280 kts 231°
2026-05-07 11:38 37.54638 -122.70350 8971 ft 283 kts 231°
2026-05-07 11:38 37.53391 -122.72287 9502 ft 285 kts 231°
2026-05-07 11:38 37.52135 -122.74237 10048 ft 288 kts 231°
2026-05-07 11:39 37.50859 -122.76218 10429 ft 296 kts 231°
2026-05-07 11:39 37.49533 -122.78275 10655 ft 309 kts 231°
2026-05-07 11:39 37.48151 -122.80416 10883 ft 321 kts 231°
2026-05-07 11:39 37.46729 -122.82619 11081 ft 317 kts 231°
2026-05-07 11:40 37.45398 -122.84678 11119 ft 293 kts 231°
2026-05-07 11:40 37.44120 -122.86658 10900 ft 291 kts 231°
2026-05-07 11:40 37.42850 -122.88652 10687 ft 290 kts 231°
2026-05-07 11:40 37.41606 -122.90581 10763 ft 278 kts 231°
2026-05-07 11:41 37.40439 -122.92386 11131 ft 252 kts 231°
2026-05-07 11:41 37.39346 -122.94078 11511 ft 250 kts 231°
2026-05-07 11:41 37.38250 -122.95781 11980 ft 251 kts 231°
2026-05-07 11:41 37.37156 -122.97486 12449 ft 251 kts 231°
2026-05-07 11:42 37.36060 -122.99197 12916 ft 252 kts 231°
2026-05-07 11:42 37.34957 -123.00925 13359 ft 254 kts 231°
2026-05-07 11:42 37.33850 -123.02662 13785 ft 256 kts 231°
2026-05-07 11:42 37.32733 -123.04416 14194 ft 258 kts 231°
2026-05-07 11:43 37.31602 -123.06184 14528 ft 263 kts 230°
2026-05-07 11:43 37.30393 -123.07980 14727 ft 275 kts 229°
2026-05-07 11:43 37.29130 -123.09851 14918 ft 287 kts 230°
2026-05-07 11:43 37.27822 -123.11817 15121 ft 299 kts 230°
2026-05-07 11:44 37.26490 -123.13839 15332 ft 310 kts 230°
2026-05-07 11:44 37.25097 -123.15964 15539 ft 321 kts 230°
2026-05-07 11:44 37.23655 -123.18168 15746 ft 332 kts 230°
2026-05-07 11:44 37.22165 -123.20448 15954 ft 343 kts 230°
2026-05-07 11:45 37.20632 -123.22792 16148 ft 353 kts 231°
2026-05-07 11:45 37.19054 -123.25205 16346 ft 363 kts 231°
2026-05-07 11:45 37.17430 -123.27686 16532 ft 372 kts 231°
2026-05-07 11:45 37.15769 -123.30223 16713 ft 381 kts 231°
2026-05-07 11:46 37.14068 -123.32818 16889 ft 389 kts 231°
2026-05-07 11:46 37.12331 -123.35467 17071 ft 397 kts 231°
2026-05-07 11:46 37.10556 -123.38170 17254 ft 404 kts 231°
2026-05-07 11:46 37.08764 -123.40899 17539 ft 408 kts 231°
2026-05-07 11:47 37.06953 -123.43653 17861 ft 411 kts 231°
2026-05-07 11:47 37.05156 -123.46384 18175 ft 413 kts 231°
2026-05-07 11:47 37.03326 -123.49164 18506 ft 415 kts 231°
2026-05-07 11:47 37.01480 -123.51964 18774 ft 418 kts 231°
2026-05-07 11:48 36.99627 -123.54773 19059 ft 420 kts 231°
2026-05-07 11:48 36.97759 -123.57601 19345 ft 422 kts 231°
2026-05-07 11:48 36.95888 -123.60434 19624 ft 424 kts 231°
2026-05-07 11:48 36.94007 -123.63279 19906 ft 426 kts 231°
2026-05-07 11:49 36.92112 -123.66143 20185 ft 428 kts 231°
2026-05-07 11:49 36.90211 -123.69013 20458 ft 430 kts 231°
2026-05-07 11:49 36.88296 -123.71901 20724 ft 432 kts 231°
2026-05-07 11:49 36.86380 -123.74790 20987 ft 434 kts 231°
2026-05-07 11:50 36.84447 -123.77700 21251 ft 436 kts 231°
2026-05-07 11:50 36.82503 -123.80623 21511 ft 438 kts 231°
2026-05-07 11:50 36.80555 -123.83552 21771 ft 440 kts 231°
2026-05-07 11:50 36.78594 -123.86498 22022 ft 442 kts 231°
2026-05-07 11:51 36.76622 -123.89454 22284 ft 444 kts 231°
2026-05-07 11:51 36.74644 -123.92420 22536 ft 446 kts 231°
2026-05-07 11:51 36.72654 -123.95398 22780 ft 448 kts 231°
2026-05-07 11:51 36.71332 -123.97377 22948 ft 449 kts 231°